Theta_e
313 313 314 313 314 312 312 312 314 315 314 314 315 316 315 316 315 312 310 310 309 309 310 311 313 314 315 312 314 315 313 313 313 312 312 312 311 312 313 312 311 314 313 313 313 312 311
313 313 313 313 308 307 306 307 309 310 310 310 311 310 309 308 308 308 309 310 310 310 311 312 314 314 313 313 314 313 312 312 311 311 312 311 312 311 312 312 312 311 311 311 311 311 311
312 312 312 312 309 306 305 305 307 307 307 307 308 307 307 307 308 310 310 309 308 308 309 310 310 312 310 312 312 310 311 311 311 311 310 312 311 308 311 309 310 311 312 310 310 312 310
310 311 311 311 308 305 304 304 304 306 307 307 307 307 307 308 308 309 308 308 308 308 308 309 309 311 311 310 310 308 308 309 308 310 311 311 312 311 312 310 310 311 308 310 309 310 311
308 305 305 305 307 306 304 304 304 304 306 307 307 306 306 307 308 308 308 308 308 309 309 308 307 308 309 308 307 307 308 308 309 309 310 311 311 310 310 311 306 306 310 310 309 309 309
311 308 302 302 304 304 304 304 303 303 304 306 307 307 307 308 306 306 308 308 308 307 307 307 306 301 305 307 308 308 308 308 308 308 308 310 306 307 303 305 305 307 307 307 309 308 307
310 310 309 304 302 301 302 302 302 303 303 303 305 306 307 306 306 306 306 308 305 303 306 306 306 305 306 308 308 309 309 308 307 306 308 306 311 308 306 306 307 308 307 306 306 305 305
313 309 307 307 307 306 303 301 300 299 300 301 302 304 305 306 305 306 306 305 307 307 305 306 306 306 308 308 308 307 309 307 307 308 306 304 308 306 306 306 307 306 305 306 305 305 306
314 314 312 308 307 306 307 307 306 303 301 300 299 301 304 304 306 306 306 307 307 308 305 306 306 306 305 308 308 307 307 307 307 307 307 305 305 305 306 306 306 305 306 305 305 305 305
313 314 314 314 313 311 308 307 307 307 308 307 301 300 302 305 306 307 306 306 307 307 298 301 305 306 307 307 307 308 308 305 305 307 305 304 304 306 307 306 305 306 304 305 306 307 311
314 314 313 313 314 314 314 313 310 308 307 308 302 301 303 306 305 307 307 306 307 304 302 301 305 306 306 307 306 306 307 305 305 305 302 301 305 306 306 306 304 306 305 304 305 306 309
313 313 313 313 313 314 314 314 314 313 311 309 301 303 303 305 307 307 306 306 306 303 300 305 306 307 307 307 307 307 307 304 303 304 301 302 302 305 304 305 304 305 305 305 304 308 309
313 312 312 313 313 313 313 314 314 314 314 310 302 306 304 305 305 306 307 305 304 305 301 305 306 307 307 308 306 307 304 302 301 298 298 299 302 304 304 305 303 302 304 301 301 300 306
313 313 312 312 313 313 314 314 314 314 314 311 303 307 306 306 305 307 307 301 302 304 306 306 307 306 307 306 305 304 304 301 300 298 297 300 301 305 304 305 305 304 307 301 300 302 303
312 312 313 312 312 312 313 314 314 314 314 313 305 308 308 306 305 308 300 302 303 305 308 307 304 304 303 305 304 300 302 301 300 299 298 297 300 301 302 303 303 305 306 306 306 301 306
312 312 313 312 312 312 312 313 313 314 314 313 306 307 308 304 304 306 302 308 306 307 307 307 305 304 304 302 302 301 300 300 301 299 298 299 298 299 301 303 302 305 304 301 300 302 303
311 312 312 312 312 312 311 312 313 313 314 313 304 302 307 304 307 302 305 304 307 307 306 306 306 306 305 305 302 302 301 300 300 300 299 300 299 299 301 303 303 304 304 304 299 304 302
311 311 311 312 311 311 311 311 312 313 314 313 301 305 307 305 303 301 304 309 308 307 305 306 305 305 304 304 303 302 301 300 298 299 301 299 299 300 300 300 299 303 303 303 302 298 302
311 311 311 311 311 311 310 311 312 313 313 309 300 300 306 304 303 302 302 306 306 306 306 305 305 304 303 304 303 301 301 300 298 299 299 300 298 297 303 300 300 301 301 303 298 298 303
311 311 311 311 311 311 310 310 311 312 313 311 300 306 303 300 299 304 305 306 304 305 305 305 305 303 304 303 301 303 301 301 299 299 302 301 298 299 302 303 299 301 301 301 302 296 299
310 310 309 310 311 311 311 310 310 311 313 310 300 304 302 307 304 305 305 305 305 305 305 304 305 304 302 303 301 300 300 300 300 301 301 299 298 298 298 298 298 299 299 299 301 302 300
307 308 308 308 309 310 311 311 311 311 312 309 305 304 299 302 302 304 305 306 305 305 304 305 305 304 303 302 303 306 300 300 300 301 300 297 298 293 298 300 299 300 300 299 299 300 301
303 304 306 307 307 308 310 310 311 311 310 309 304 303 304 310 304 307 309 308 307 305 306 304 304 304 303 304 303 302 300 300 301 302 300 298 297 297 302 299 301 306 303 301 300 298 299
302 302 304 304 305 306 308 309 311 310 310 310 307 304 306 311 309 309 308 307 309 311 310 310 303 303 303 299 300 299 298 298 297 298 299 297 296 298 300 300 303 308 300 300 300 299 299
300 300 301 302 303 303 304 306 308 309 309 309 309 306 305 308 309 310 311 311 310 309 308 308 307 302 299 301 304 307 306 301 299 297 296 297 299 300 300 299 301 305 301 300 300 301 299
297 299 300 300 302 301 301 301 301 302 305 306 308 308 304 307 310 309 310 310 311 310 310 305 299 297 299 302 304 310 315 311 306 300 296 297 298 300 300 301 306 305 298 299 298 299 299
298 298 298 298 298 300 300 300 298 298 298 301 303 305 304 305 305 306 309 308 306 306 307 306 303 300 299 303 307 308 310 304 307 305 299 298 299 301 301 302 301 301 300 298 302 303 299
298 298 298 298 297 298 298 299 299 298 298 298 299 301 303 304 305 304 305 307 307 307 308 306 306 302 300 304 307 307 303 302 302 302 300 302 302 300 300 302 304 300 300 300 301 298 299
298 298 298 297 297 297 297 298 298 299 299 299 298 301 299 301 303 303 302 304 306 306 307 307 308 306 304 303 304 304 305 301 302 306 298 305 304 304 302 303 302 298 299 299 299 300 299
Wind_Speed
24 24 24 25 27 29 30 31 32 32 29 27 27 26 26 24 23 23 22 20 17 14 9 6 4 3 4 7 4 7 10 11 12 16 17 3 6 2 2 2 5 1 3 6 7 9 7
22 23 23 24 26 28 29 28 27 25 25 25 25 25 24 24 22 21 20 19 16 13 13 12 8 7 6 8 5 9 9 10 12 12 13 11 3 1 3 1 0 3 5 8 7 9 5
20 21 21 22 23 24 25 26 24 23 23 23 23 22 21 19 18 18 16 14 11 9 10 10 6 14 15 4 5 8 6 6 9 8 4 5 4 3 1 4 2 4 6 7 5 2 7
20 20 20 20 21 21 21 22 22 21 20 21 22 22 20 17 14 12 11 10 9 9 9 7 7 9 5 3 3 7 8 4 7 6 3 3 6 3 2 3 6 3 2 4 4 7 5
20 21 21 20 20 20 21 20 20 18 17 17 18 19 19 14 9 7 7 9 8 5 6 6 6 6 2 3 3 7 6 5 5 9 6 3 4 4 5 2 4 4 4 5 8 5 6
20 20 20 20 20 20 20 20 20 19 16 13 13 13 15 17 19 14 6 6 4 5 4 5 9 6 4 2 4 5 2 5 3 5 6 7 5 3 3 3 2 5 6 6 10 6 7
20 20 20 20 21 20 19 19 19 19 18 16 13 10 9 14 15 17 10 3 6 6 12 4 1 3 2 5 2 3 7 8 6 6 2 4 3 5 6 4 4 4 5 10 14 13 6
20 20 21 21 21 21 21 20 20 19 18 17 14 12 11 13 14 14 15 7 3 2 3 1 1 1 1 2 4 4 3 3 3 1 2 4 5 4 5 5 4 5 8 15 11 7 5
22 22 21 22 22 22 22 22 21 21 20 20 18 14 11 12 8 10 17 7 3 2 4 4 3 2 3 2 2 4 2 2 2 2 3 5 4 3 4 3 5 5 6 6 9 7 5
21 21 22 22 23 23 23 23 23 23 23 23 20 15 9 8 2 6 5 7 3 3 5 5 3 2 1 1 3 2 2 2 1 3 3 5 3 3 3 5 4 5 4 7 7 9 8
23 22 22 23 25 25 25 25 25 25 26 28 22 15 6 4 3 3 2 3 2 2 5 2 4 1 1 1 4 2 0 2 3 3 4 4 2 2 4 4 5 9 2 7 5 4 4
21 21 21 22 23 24 27 27 27 28 29 31 21 14 4 3 5 3 2 2 2 6 3 4 2 4 4 0 2 2 1 3 0 2 1 6 4 3 4 3 4 7 6 2 3 1 2
21 21 21 21 22 22 23 27 29 29 31 31 20 10 6 5 2 4 3 3 5 6 2 5 3 4 3 3 4 2 3 5 3 6 6 6 2 3 1 4 3 6 5 4 6 4 5
20 21 22 22 22 24 25 25 27 29 32 28 16 7 8 9 5 3 2 4 9 2 2 3 3 4 2 4 1 4 2 4 1 3 2 4 7 1 1 2 3 3 2 4 4 3 6
19 20 21 22 24 25 26 26 27 29 31 28 9 5 4 9 6 3 4 6 3 2 2 5 4 3 4 2 1 5 1 1 2 2 2 4 6 3 2 1 4 2 2 1 3 2 4
17 19 22 21 22 24 25 27 28 28 32 27 4 3 5 10 8 3 4 3 3 3 1 1 2 2 3 4 5 6 3 1 2 2 1 1 6 2 4 1 3 2 0 3 3 6 6
17 17 19 21 21 23 25 26 28 29 32 23 4 3 7 10 5 4 3 3 3 2 3 1 1 3 3 3 1 2 3 3 2 3 2 3 2 5 2 4 5 2 1 3 3 3 3
16 17 18 19 20 21 23 24 26 28 32 19 5 3 9 10 4 2 2 1 2 2 1 0 1 2 2 2 3 3 4 6 6 6 4 4 4 5 8 2 1 2 4 5 4 4 2
15 17 17 18 19 20 21 22 23 25 27 12 2 2 5 6 3 3 5 3 2 2 3 2 3 5 3 3 3 4 3 2 7 7 6 6 1 5 8 4 1 4 4 3 4 2 6
14 16 17 18 18 18 19 20 20 21 22 13 2 3 4 4 1 3 4 3 4 2 3 3 3 3 2 3 4 4 3 2 4 4 5 6 3 7 7 8 2 7 6 6 5 3 3
16 16 15 16 17 16 16 16 18 17 17 10 3 1 2 4 3 2 2 2 3 3 2 3 2 6 6 3 2 4 4 4 2 4 2 3 6 6 12 15 17 22 20 15 15 14 8
16 17 15 15 15 16 16 15 15 14 13 4 2 2 1 2 2 1 1 3 3 4 3 3 4 1 6 6 7 9 5 4 7 2 5 1 4 2 7 16 8 14 17 18 19 22 21
13 15 14 13 13 13 13 13 12 9 8 3 1 1 1 2 1 1 4 5 3 1 6 4 7 2 5 14 14 15 7 5 6 8 8 5 2 3 6 5 11 7 7 9 6 6 20
12 12 12 12 11 11 12 13 9 5 4 3 2 1 2 4 4 4 3 5 8 9 10 11 4 4 6 1 4 4 5 7 7 9 7 6 4 2 5 7 1 2 4 8 12 6 16
11 13 12 11 12 12 11 11 10 7 5 8 5 3 3 3 7 7 11 11 8 7 6 7 11 5 1 2 2 5 3 3 1 1 6 5 4 3 3 2 9 11 2 5 5 6 12
10 11 12 11 10 11 11 10 10 9 10 9 11 13 4 2 6 13 8 4 8 11 9 6 4 5 2 1 2 4 4 3 4 1 4 4 1 4 1 4 6 3 3 2 2 6 3
9 8 9 11 11 10 9 10 11 10 9 7 6 9 5 3 4 5 5 6 1 2 3 3 3 2 1 1 3 5 6 5 6 7 6 3 2 11 11 7 8 13 7 1 1 5 2
10 9 9 10 10 12 12 10 10 10 9 8 8 11 8 3 4 5 10 13 9 6 9 4 2 0 1 4 4 4 4 5 4 4 8 10 10 6 4 5 10 8 3 6 4 5 5
10 11 10 10 11 11 11 12 11 11 10 9 5 5 10 7 4 17 22 25 23 21 9 4 4 4 4 2 3 3 3 2 3 4 1 4 7 3 10 9 3 6 6 6 7 14 10
Wind_Direction
42 44 44 40 45 49 51 57 61 63 63 58 58 59 60 66 78 92 96 95 91 88 88 78 60 74 65 52 65 358 12 33 38 43 45 56 49 61 75 342 339 236 323 315 287 289 253
45 41 41 43 51 54 54 53 56 61 60 58 57 55 59 68 75 81 85 84 79 76 69 61 59 64 68 74 16 10 29 42 37 36 40 46 73 52 95 13 104 294 276 283 280 274 272
46 46 43 41 47 51 50 53 53 53 53 53 54 54 61 69 74 79 74 68 62 56 47 49 61 69 62 120 22 29 18 18 19 25 42 51 51 76 136 334 326 288 319 323 278 283 295
41 42 42 42 45 46 48 48 48 51 50 48 47 47 49 54 64 70 59 43 38 51 55 58 56 75 86 14 25 12 15 16 7 33 5 30 21 82 50 331 352 331 62 359 261 305 266
37 40 42 43 41 40 40 41 46 49 48 48 47 47 50 48 43 56 48 33 31 67 56 51 51 90 71 356 21 9 11 354 359 3 34 50 47 50 13 6 331 353 281 274 301 211 283
34 33 36 36 38 38 38 38 36 38 41 42 38 42 41 41 38 20 304 299 35 48 27 58 58 50 9 293 305 330 24 19 34 0 24 35 38 27 7 80 274 280 292 267 264 278 280
33 32 30 31 31 30 30 31 32 31 29 24 17 15 6 10 10 13 5 124 24 357 35 84 190 144 231 292 292 7 14 9 31 48 26 5 23 240 236 216 244 265 261 267 276 280 286
26 28 29 28 27 25 24 23 21 20 19 16 10 358 346 345 352 11 40 75 128 197 84 47 119 74 351 13 7 347 18 48 54 304 16 12 234 245 262 273 261 277 282 282 290 281 281
22 24 23 24 23 22 19 18 18 15 10 5 357 349 341 347 359 19 59 64 45 25 82 339 341 345 313 51 298 276 124 130 162 231 205 187 233 291 231 281 301 259 242 273 272 315 259
25 20 19 22 22 20 18 15 11 9 5 2 352 345 337 346 50 28 46 26 24 54 74 310 1 326 98 112 279 227 191 162 246 258 264 231 260 228 255 259 199 292 228 261 283 332 320
21 23 20 18 16 17 16 13 12 8 2 358 354 352 353 43 88 69 94 356 110 52 53 277 308 265 37 199 300 356 90 66 262 272 75 275 285 287 271 231 163 246 299 262 271 266 314
21 21 23 20 13 12 9 8 7 5 3 358 357 355 25 75 78 76 322 151 129 44 282 354 310 353 5 341 294 320 286 44 300 287 248 254 302 255 235 289 211 307 309 338 69 326 278
17 19 17 17 14 13 8 2 2 2 359 359 359 14 55 57 60 360 129 97 37 88 304 325 338 13 343 296 317 358 359 4 33 10 8 324 257 280 238 317 358 6 10 338 355 9 234
14 12 14 11 12 7 4 3 359 360 358 360 360 34 71 51 24 18 172 53 65 246 306 332 334 321 310 6 308 327 360 349 96 79 20 27 333 135 47 231 306 346 58 128 289 316 289
2 8 10 6 7 5 359 359 358 359 357 356 8 62 62 9 6 349 76 48 194 209 281 336 324 353 323 353 321 15 345 234 227 168 57 14 276 310 227 291 113 332 8 158 277 245 289
359 359 1 5 3 2 360 358 356 359 357 355 15 63 27 356 348 10 70 162 194 211 254 45 335 64 314 316 2 15 328 226 148 151 109 191 297 218 285 30 54 159 140 19 11 345 306
353 353 355 360 1 2 359 358 357 359 358 355 24 52 355 347 348 46 96 236 271 227 166 153 259 295 269 288 261 286 270 267 155 136 77 135 127 288 326 186 184 124 208 85 141 171 205
342 346 348 350 354 358 358 357 359 359 359 2 1 40 350 353 48 40 69 280 310 283 34 184 162 237 247 307 281 269 235 219 163 154 161 198 162 278 247 132 78 193 205 164 126 258 196
332 339 342 341 344 350 354 354 358 359 3 359 30 276 352 359 79 354 312 299 253 226 232 189 239 205 179 248 294 219 251 238 169 163 173 177 229 327 337 36 58 233 201 146 100 60 207
322 329 333 331 332 339 346 349 352 357 359 2 31 1 334 43 41 98 14 292 303 217 256 201 228 165 166 251 223 288 274 245 204 208 179 171 193 196 223 236 164 252 202 192 158 155 208
308 305 312 319 321 328 334 341 342 348 352 349 26 328 177 323 353 4 313 297 292 294 211 213 250 227 185 268 256 235 232 283 195 230 132 172 230 215 252 271 267 266 265 236 212 219 209
311 303 305 308 311 316 323 332 335 342 347 358 30 37 350 252 271 283 184 265 233 287 221 240 226 261 195 230 218 277 224 204 240 94 172 224 271 112 275 252 252 262 253 230 230 235 247
329 329 312 309 313 318 315 320 317 327 352 347 1 358 91 267 227 258 219 224 248 33 273 242 227 245 223 239 243 254 237 232 231 178 191 182 227 358 270 354 310 280 251 177 188 207 217
334 341 335 332 327 321 319 312 292 291 335 306 263 179 156 254 211 206 249 219 260 269 259 278 233 222 243 135 289 274 245 243 219 223 179 163 166 186 279 341 261 276 191 179 205 218 209
329 332 335 338 334 335 325 313 315 314 303 293 270 220 201 246 246 261 263 269 273 277 275 255 262 245 102 224 284 319 287 292 206 48 201 169 158 276 263 248 307 286 135 142 178 287 209
321 328 331 328 335 335 332 326 328 316 298 287 273 260 209 276 231 242 273 294 286 282 265 249 20 353 346 253 192 230 239 261 251 279 29 151 21 173 146 250 245 268 354 206 223 291 192
329 334 331 332 322 324 328 331 330 327 328 315 279 286 262 262 225 203 247 269 333 314 266 296 271 208 216 153 234 225 239 202 232 202 173 145 197 223 233 261 281 262 266 187 242 246 201
321 327 331 333 333 328 317 319 321 321 321 321 283 282 255 258 263 227 242 255 254 243 273 312 297 2 339 217 233 223 229 229 272 207 183 174 169 195 185 214 279 228 108 190 226 291 313
311 314 318 321 325 326 326 323 314 312 309 311 278 269 290 262 289 294 274 257 253 251 257 207 269 257 214 212 241 272 289 288 250 250 272 253 220 214 194 207 262 239 234 261 269 285 298